Location: Mentone
(34.5413°N, 85.5351°W)
Time: 23:13:53
(UTC-05:00)

Uosat F - Visible Passes

Search period start: 21 September 2014 00:00
Search period end: 01 October 2014 00:00
Orbit: 751 x 763 km, 98.7° (Epoch: 20 September)

Date Brightness Start Highest point End Pass type
(mag) Time Alt. Az. Time Alt. Az. Time Alt. Az.
21 Sep 11.1 05:08:01 10° NNE 05:13:04 87° ESE 05:18:06 10° SSW visible
22 Sep 12.7 04:29:20 10° NNE 04:33:53 34° E 04:38:25 10° SSE visible
23 Sep 13.9 03:52:12 10° ENE 03:54:29 13° E 03:56:47 10° ESE visible
23 Sep 11.1 05:28:39 10° N 05:33:35 58° WNW 05:38:30 10° SSW visible
24 Sep 11.7 04:49:33 10° NNE 04:54:30 55° E 04:59:25 10° S visible
25 Sep 13.4 04:11:23 10° NE 04:15:13 22° E 04:19:02 10° SE visible
25 Sep 11.7 05:49:28 10° N 05:54:01 36° WNW 05:58:35 10° SW visible
26 Sep 11.0 05:10:00 10° NNE 05:15:03 90° ESE 05:20:06 10° SSW visible
27 Sep 12.6 04:31:17 10° NNE 04:35:52 35° E 04:40:27 10° SSE visible
28 Sep 13.9 03:54:01 10° ENE 03:56:29 14° E 03:58:56 10° ESE visible
28 Sep 11.2 05:30:38 10° N 05:35:33 56° WNW 05:40:28 10° SSW visible
29 Sep 11.7 04:51:30 10° NNE 04:56:29 57° E 05:01:25 10° S visible
30 Sep 13.3 04:13:17 10° NE 04:17:12 22° E 04:21:05 10° SSE visible
30 Sep 11.7 05:51:27 10° N 05:55:59 35° WNW 06:00:31 10° SW visible
